This is the latest recevied weather packets stored in our database for station/object F5OWB. If no packets are shown the sender has not sent any weather packets the latest 10 day(s).
| Time | Temp. | Humidity | Pressure | Rain* | Wind** | Luminosity | Snow |
|---|---|---|---|---|---|---|---|
| 1778241393 | 18.33° C | 58% | 1018.6 hPa | 0 mm | - | 798 W/m² | - |
| 1778241330 | 18.33° C | 58% | 1018.7 hPa | 0 mm | - | 800 W/m² | - |
| 1778241271 | 18.33° C | 55% | 1018.7 hPa | 0 mm | - | 800 W/m² | - |
| 1778241209 | 18.33° C | 54% | 1018.7 hPa | 0 mm | - | 796 W/m² | - |
| 1778241149 | 18.33° C | 57% | 1018.7 hPa | 0 mm | - | 809 W/m² | - |
| 1778241089 | 18.33° C | 58% | 1018.7 hPa | 0 mm | - | 733 W/m² | - |
| 1778241027 | 18.33° C | 57% | 1018.7 hPa | 0 mm | - | 733 W/m² | - |
| 1778240962 | 18.33° C | 55% | 1018.7 hPa | 0 mm | - | 733 W/m² | - |
| 1778240962 | 18.33° C | 55% | 1018.7 hPa | 0 mm | - | 733 W/m² | - |
| 1778240904 | 18.33° C | 54% | 1018.7 hPa | 0 mm | - | 744 W/m² | - |
| 1778240843 | 18.33° C | 56% | 1018.7 hPa | 0 mm | - | 749 W/m² | - |
| 1778240785 | 18.33° C | 59% | 1018.7 hPa | 0 mm | - | 737 W/m² | - |
| 1778240722 | 18.33° C | 57% | 1018.7 hPa | 0 mm | - | 715 W/m² | - |
| 1778240660 | 18.33° C | 58% | 1018.7 hPa | 0 mm | - | 737 W/m² | - |
| 1778240596 | 18.33° C | 59% | 1018.7 hPa | 0 mm | - | 679 W/m² | - |
| 1778240537 | 18.33° C | 56% | 1018.8 hPa | 0 mm | - | 724 W/m² | - |
| 1778240477 | 18.33° C | 56% | 1018.8 hPa | 0 mm | - | 780 W/m² | - |
| 1778240417 | 18.33° C | 54% | 1018.8 hPa | 0 mm | - | 789 W/m² | - |
| 1778240357 | 18.33° C | 56% | 1018.8 hPa | 0 mm | - | 814 W/m² | - |
| 1778240299 | 18.33° C | 57% | 1018.8 hPa | 0 mm | - | 777 W/m² | - |
| 1778240236 | 18.33° C | 56% | 1018.8 hPa | 0 mm | - | 777 W/m² | - |
| 1778240176 | 18.33° C | 55% | 1018.8 hPa | 0 mm | - | 810 W/m² | - |
| 1778240117 | 18.33° C | 56% | 1018.8 hPa | 0 mm | - | 803 W/m² | - |
| 1778240057 | 18.33° C | 55% | 1018.8 hPa | 0 mm | - | 800 W/m² | - |
| 1778239988 | 18.33° C | 57% | 1018.8 hPa | 0 mm | - | 800 W/m² | - |
* Rain latest hour (hover to see other rain measurements)
** Current wind speed in m/s (hover to see current wind gust speed)